owner,sensor,date,latitude,longitude,vertical_datum,wind_speed,wind_to_direction,wind_speed_of_gust,qcFlag 
NDBC,ioos:station:wmo:42056:1,2017-03-01T00:40:00Z,19.8020,-84.8570,5.0,8.0,90.0,10.0,'1111122,1111122,1111122' 
NDBC,ioos:station:wmo:42056:1,2017-03-01T01:50:00Z,19.8020,-84.8570,5.0,7.0,80.0,9.0,'1111122,1111122,1111122' 
NDBC,ioos:station:wmo:42056:1,2017-03-01T02:40:00Z,19.8020,-84.8570,5.0,8.0,80.0,10.0,'1111122,1111122,1111122' 
NDBC,ioos:station:wmo:42056:1,2017-03-01T03:40:00Z,19.8020,-84.8570,5.0,7.0,80.0,9.0,'1111122,1111122,1111122' 
NDBC,ioos:station:wmo:42056:1,2017-03-01T04:40:00Z,19.8020,-84.8570,5.0,6.0,90.0,8.0,'1111122,1111122,1111122' 
NDBC,ioos:station:wmo:42056:1,2017-03-01T05:40:00Z,19.8020,-84.8570,5.0,6.0,90.0,8.0,'1111122,1111122,1111122' 
NDBC,ioos:station:wmo:42056:1,2017-03-01T06:40:00Z,19.8020,-84.8570,5.0,5.0,100.0,7.0,'1111122,1111122,1111122' 
NDBC,ioos:station:wmo:42056:1,2017-03-01T07:40:00Z,19.8020,-84.8570,5.0,6.0,90.0,7.0,'1111122,1111122,1111122' 
NDBC,ioos:station:wmo:42056:1,2017-03-01T08:40:00Z,19.8020,-84.8570,5.0,5.0,100.0,7.0,'1111122,1111122,1111122' 
NDBC,ioos:station:wmo:42056:1,2017-03-01T09:40:00Z,19.8020,-84.8570,5.0,6.0,90.0,8.0,'1111122,1111122,1111122' 
NDBC,ioos:station:wmo:42056:1,2017-03-01T10:50:00Z,19.8020,-84.8570,5.0,7.0,90.0,8.0,'1111122,1111122,1111122' 
NDBC,ioos:station:wmo:42056:1,2017-03-01T11:50:00Z,19.8020,-84.8570,5.0,7.0,80.0,8.0,'1111122,1111122,1111122' 
NDBC,ioos:station:wmo:42056:1,2017-03-01T12:40:00Z,19.8020,-84.8570,5.0,7.0,80.0,10.0,'1111122,1111122,1111122' 
NDBC,ioos:station:wmo:42056:1,2017-03-01T13:40:00Z,19.8020,-84.8570,5.0,8.0,90.0,9.0,'1111122,1111122,1111122' 
NDBC,ioos:station:wmo:42056:1,2017-03-01T14:50:00Z,19.8020,-84.8570,5.0,7.0,90.0,8.0,'1111122,1111122,1111122' 
NDBC,ioos:station:wmo:42056:1,2017-03-01T15:40:00Z,19.8020,-84.8570,5.0,6.0,90.0,8.0,'1111122,1111122,1111122' 
NDBC,ioos:station:wmo:42056:1,2017-03-01T16:40:00Z,19.8020,-84.8570,5.0,7.0,90.0,9.0,'1111122,1111122,1111122' 
NDBC,ioos:station:wmo:42056:1,2017-03-01T17:40:00Z,19.8020,-84.8570,5.0,7.0,90.0,9.0,'1111122,1111122,1111122' 
NDBC,ioos:station:wmo:42056:1,2017-03-01T18:50:00Z,19.8020,-84.8570,5.0,6.0,110.0,8.0,'1111122,1111122,1111122' 
NDBC,ioos:station:wmo:42056:1,2017-03-01T19:40:00Z,19.8020,-84.8570,5.0,6.0,110.0,8.0,'1111122,1111122,1111122' 
NDBC,ioos:station:wmo:42056:1,2017-03-01T20:40:00Z,19.8020,-84.8570,5.0,7.0,110.0,8.0,'1111122,1111122,1111122' 
NDBC,ioos:station:wmo:42056:1,2017-03-01T21:40:00Z,19.8020,-84.8570,5.0,6.0,110.0,8.0,'1111122,1111122,1111122' 
NDBC,ioos:station:wmo:42056:1,2017-03-01T22:40:00Z,19.8020,-84.8570,5.0,7.0,120.0,8.0,'1111122,1111122,1111122' 
NDBC,ioos:station:wmo:42056:1,2017-03-02T00:40:00Z,19.8020,-84.8570,5.0,6.0,120.0,8.0,'1111122,1111122,1111122' 
NDBC,ioos:station:wmo:42056:1,2017-03-02T01:20:00Z,19.8020,-84.8570,5.0,6.0,110.0,7.0,'1111122,1111122,1111122' 
NDBC,ioos:station:wmo:42056:1,2017-03-02T02:40:00Z,19.8020,-84.8570,5.0,6.0,110.0,7.0,'1111122,1111122,1111122' 
NDBC,ioos:station:wmo:42056:1,2017-03-02T03:40:00Z,19.8020,-84.8570,5.0,6.0,100.0,8.0,'1111122,1111122,1111122' 
NDBC,ioos:station:wmo:42056:1,2017-03-02T04:40:00Z,19.8020,-84.8570,5.0,6.0,110.0,7.0,'1111122,1111122,1111122' 
NDBC,ioos:station:wmo:42056:1,2017-03-02T05:50:00Z,19.8020,-84.8570,5.0,6.0,110.0,7.0,'1111122,1111122,1111122' 
NDBC,ioos:station:wmo:42056:1,2017-03-02T06:40:00Z,19.8020,-84.8570,5.0,5.0,100.0,6.0,'1111122,1111122,1111122' 
NDBC,ioos:station:wmo:42056:1,2017-03-02T07:40:00Z,19.8020,-84.8570,5.0,5.0,100.0,6.0,'1111122,1111122,1111122' 
NDBC,ioos:station:wmo:42056:1,2017-03-02T08:40:00Z,19.8020,-84.8570,5.0,4.0,80.0,5.0,'1111122,1111122,1111122' 
NDBC,ioos:station:wmo:42056:1,2017-03-02T09:40:00Z,19.8020,-84.8570,5.0,3.0,100.0,4.0,'1111122,1111122,1111122' 
NDBC,ioos:station:wmo:42056:1,2017-03-02T10:50:00Z,19.8020,-84.8570,5.0,3.0,80.0,4.0,'1111122,1111122,1111122' 
NDBC,ioos:station:wmo:42056:1,2017-03-02T11:40:00Z,19.8020,-84.8570,5.0,3.0,70.0,4.0,'1111122,1111122,1111122' 
NDBC,ioos:station:wmo:42056:1,2017-03-02T12:40:00Z,19.8020,-84.8570,5.0,3.0,60.0,4.0,'1111122,1111122,1111122' 
NDBC,ioos:station:wmo:42056:1,2017-03-02T13:10:00Z,19.8020,-84.8570,5.0,3.0,60.0,4.0,'1111122,1111122,1111122' 
NDBC,ioos:station:wmo:42056:1,2017-03-02T14:50:00Z,19.8020,-84.8570,5.0,5.0,70.0,6.0,'1111122,1111122,1111122' 
NDBC,ioos:station:wmo:42056:1,2017-03-02T15:40:00Z,19.8020,-84.8570,5.0,5.0,70.0,6.0,'1111122,1111122,1111122' 
NDBC,ioos:station:wmo:42056:1,2017-03-02T16:40:00Z,19.8020,-84.8570,5.0,4.0,60.0,5.0,'1111122,1111122,1111122' 
NDBC,ioos:station:wmo:42056:1,2017-03-02T17:40:00Z,19.8020,-84.8570,5.0,4.0,70.0,5.0,'1111122,1111122,1111122' 
NDBC,ioos:station:wmo:42056:1,2017-03-02T18:40:00Z,19.8020,-84.8570,5.0,4.0,50.0,5.0,'1111122,1111122,1111122' 
NDBC,ioos:station:wmo:42056:1,2017-03-02T19:50:00Z,19.8020,-84.8570,5.0,4.0,50.0,5.0,'1111122,1111122,1111122' 
NDBC,ioos:station:wmo:42056:1,2017-03-02T20:40:00Z,19.8020,-84.8570,5.0,5.0,60.0,6.0,'1111122,1111122,1111122' 
NDBC,ioos:station:wmo:42056:1,2017-03-02T21:40:00Z,19.8020,-84.8570,5.0,5.0,60.0,5.0,'1111122,1111122,1111122' 
NDBC,ioos:station:wmo:42056:1,2017-03-02T22:50:00Z,19.8020,-84.8570,5.0,5.0,60.0,6.0,'1111122,1111122,1111122' 
NDBC,ioos:station:wmo:42056:1,2017-03-02T23:40:00Z,19.8020,-84.8570,5.0,5.0,50.0,6.0,'1111122,1111122,1111122' 
NDBC,ioos:station:wmo:42056:1,2017-03-03T00:50:00Z,19.8020,-84.8570,5.0,5.0,60.0,6.0,'1111122,1111122,1111122' 
NDBC,ioos:station:wmo:42056:1,2017-03-03T01:50:00Z,19.8020,-84.8570,5.0,5.0,50.0,6.0,'1111122,1111122,1111122' 
NDBC,ioos:station:wmo:42056:1,2017-03-03T02:50:00Z,19.8020,-84.8570,5.0,4.0,30.0,5.0,'1111122,1111122,1111122' 
NDBC,ioos:station:wmo:42056:1,2017-03-03T03:40:00Z,19.8020,-84.8570,5.0,5.0,20.0,5.0,'1111122,1111122,1111122' 
NDBC,ioos:station:wmo:42056:1,2017-03-03T04:50:00Z,19.8020,-84.8570,5.0,5.0,30.0,6.0,'1111122,1111122,1111122' 
NDBC,ioos:station:wmo:42056:1,2017-03-03T05:40:00Z,19.8020,-84.8570,5.0,5.0,40.0,7.0,'1111122,1111122,1111122' 
NDBC,ioos:station:wmo:42056:1,2017-03-03T06:40:00Z,19.8020,-84.8570,5.0,5.0,40.0,7.0,'1111122,1111122,1111122' 
NDBC,ioos:station:wmo:42056:1,2017-03-03T07:40:00Z,19.8020,-84.8570,5.0,5.0,30.0,7.0,'1111122,1111122,1111122' 
NDBC,ioos:station:wmo:42056:1,2017-03-03T08:40:00Z,19.8020,-84.8570,5.0,6.0,40.0,8.0,'1111122,1111122,1111122' 
NDBC,ioos:station:wmo:42056:1,2017-03-03T09:40:00Z,19.8020,-84.8570,5.0,6.0,30.0,7.0,'1111122,1111122,1111122' 
NDBC,ioos:station:wmo:42056:1,2017-03-03T10:40:00Z,19.8020,-84.8570,5.0,6.0,30.0,8.0,'1111122,1111122,1111122' 
NDBC,ioos:station:wmo:42056:1,2017-03-03T11:40:00Z,19.8020,-84.8570,5.0,7.0,30.0,8.0,'1111122,1111122,1111122' 
NDBC,ioos:station:wmo:42056:1,2017-03-03T12:40:00Z,19.8020,-84.8570,5.0,7.0,30.0,8.0,'1111122,1111122,1111122' 
NDBC,ioos:station:wmo:42056:1,2017-03-03T13:50:00Z,19.8020,-84.8570,5.0,7.0,40.0,9.0,'1111122,1111122,1111122' 
NDBC,ioos:station:wmo:42056:1,2017-03-03T14:50:00Z,19.8020,-84.8570,5.0,6.0,40.0,8.0,'1111122,1111122,1111122' 
NDBC,ioos:station:wmo:42056:1,2017-03-03T15:40:00Z,19.8020,-84.8570,5.0,7.0,50.0,9.0,'1111122,1111122,1111122' 
NDBC,ioos:station:wmo:42056:1,2017-03-03T16:40:00Z,19.8020,-84.8570,5.0,8.0,50.0,10.0,'1111122,1111122,1111122' 
NDBC,ioos:station:wmo:42056:1,2017-03-03T17:40:00Z,19.8020,-84.8570,5.0,8.0,50.0,10.0,'1111122,1111122,1111122' 
NDBC,ioos:station:wmo:42056:1,2017-03-03T18:50:00Z,19.8020,-84.8570,5.0,8.0,50.0,10.0,'1111122,1111122,1111122' 
NDBC,ioos:station:wmo:42056:1,2017-03-03T19:40:00Z,19.8020,-84.8570,5.0,8.0,50.0,10.0,'1111122,1111122,1111122' 
NDBC,ioos:station:wmo:42056:1,2017-03-03T20:40:00Z,19.8020,-84.8570,5.0,8.0,50.0,10.0,'1111122,1111122,1111122' 
NDBC,ioos:station:wmo:42056:1,2017-03-03T21:40:00Z,19.8020,-84.8570,5.0,8.0,50.0,10.0,'1111122,1111122,1111122' 
NDBC,ioos:station:wmo:42056:1,2017-03-03T22:40:00Z,19.8020,-84.8570,5.0,9.0,40.0,11.0,'1111122,1111122,1111122' 
NDBC,ioos:station:wmo:42056:1,2017-03-04T00:40:00Z,19.8020,-84.8570,5.0,9.0,50.0,10.0,'1111122,1111122,1111122' 
NDBC,ioos:station:wmo:42056:1,2017-03-04T01:10:00Z,19.8020,-84.8570,5.0,8.0,50.0,10.0,'1111122,1111122,1111122' 
NDBC,ioos:station:wmo:42056:1,2017-03-04T02:40:00Z,19.8020,-84.8570,5.0,7.0,50.0,9.0,'1111122,1111122,1111122' 
NDBC,ioos:station:wmo:42056:1,2017-03-04T03:40:00Z,19.8020,-84.8570,5.0,6.0,50.0,8.0,'1111122,1111122,1111122' 
NDBC,ioos:station:wmo:42056:1,2017-03-04T04:40:00Z,19.8020,-84.8570,5.0,7.0,40.0,8.0,'1111122,1111122,1111122' 
NDBC,ioos:station:wmo:42056:1,2017-03-04T05:50:00Z,19.8020,-84.8570,5.0,10.0,40.0,12.0,'1111122,1111122,1111122' 
NDBC,ioos:station:wmo:42056:1,2017-03-04T06:50:00Z,19.8020,-84.8570,5.0,11.0,50.0,14.0,'1111122,1111122,1111122' 
NDBC,ioos:station:wmo:42056:1,2017-03-04T07:40:00Z,19.8020,-84.8570,5.0,11.0,40.0,13.0,'1111122,1111122,1111122' 
NDBC,ioos:station:wmo:42056:1,2017-03-04T08:40:00Z,19.8020,-84.8570,5.0,10.0,40.0,13.0,'1111122,1111122,1111122' 
NDBC,ioos:station:wmo:42056:1,2017-03-04T09:40:00Z,19.8020,-84.8570,5.0,10.0,50.0,13.0,'1111122,1111122,1111122' 
NDBC,ioos:station:wmo:42056:1,2017-03-04T10:40:00Z,19.8020,-84.8570,5.0,10.0,50.0,13.0,'1111122,1111122,1111122' 
NDBC,ioos:station:wmo:42056:1,2017-03-04T11:40:00Z,19.8020,-84.8570,5.0,10.0,50.0,13.0,'1111122,1111122,1111122' 
NDBC,ioos:station:wmo:42056:1,2017-03-04T12:50:00Z,19.8020,-84.8570,5.0,10.0,60.0,12.0,'1111122,1111122,1111122' 
NDBC,ioos:station:wmo:42056:1,2017-03-04T13:50:00Z,19.8020,-84.8570,5.0,10.0,60.0,12.0,'1111122,1111122,1111122' 
NDBC,ioos:station:wmo:42056:1,2017-03-04T14:40:00Z,19.8020,-84.8570,5.0,10.0,60.0,12.0,'1111122,1111122,1111122' 
NDBC,ioos:station:wmo:42056:1,2017-03-04T15:50:00Z,19.8020,-84.8570,5.0,10.0,60.0,12.0,'1111122,1111122,1111122' 
NDBC,ioos:station:wmo:42056:1,2017-03-04T16:40:00Z,19.8020,-84.8570,5.0,9.0,70.0,11.0,'1111122,1111122,1111122' 
NDBC,ioos:station:wmo:42056:1,2017-03-04T17:40:00Z,19.8020,-84.8570,5.0,8.0,70.0,10.0,'1111122,1111122,1111122' 
NDBC,ioos:station:wmo:42056:1,2017-03-04T18:40:00Z,19.8020,-84.8570,5.0,8.0,60.0,10.0,'1111122,1111122,1111122' 
NDBC,ioos:station:wmo:42056:1,2017-03-04T19:40:00Z,19.8020,-84.8570,5.0,8.0,70.0,9.0,'1111122,1111122,1111122' 
NDBC,ioos:station:wmo:42056:1,2017-03-04T20:40:00Z,19.8020,-84.8570,5.0,8.0,70.0,10.0,'1111122,1111122,1111122' 
NDBC,ioos:station:wmo:42056:1,2017-03-04T21:40:00Z,19.8020,-84.8570,5.0,9.0,70.0,11.0,'1111122,1111122,1111122' 
NDBC,ioos:station:wmo:42056:1,2017-03-04T22:40:00Z,19.8020,-84.8570,5.0,10.0,60.0,11.0,'1111122,1111122,1111122' 
NDBC,ioos:station:wmo:42056:1,2017-03-04T23:50:00Z,19.8020,-84.8570,5.0,8.0,60.0,11.0,'1111122,1111122,1111122' 
NDBC,ioos:station:wmo:42056:1,2017-03-05T00:40:00Z,19.8020,-84.8570,5.0,8.0,70.0,10.0,'1111122,1111122,1111122' 
NDBC,ioos:station:wmo:42056:1,2017-03-05T01:10:00Z,19.8020,-84.8570,5.0,9.0,60.0,10.0,'1111122,1111122,1111122' 
NDBC,ioos:station:wmo:42056:1,2017-03-05T02:50:00Z,19.8020,-84.8570,5.0,10.0,60.0,13.0,'1111122,1111122,1111122' 
NDBC,ioos:station:wmo:42056:1,2017-03-05T03:40:00Z,19.8020,-84.8570,5.0,9.0,70.0,12.0,'1111122,1111122,1111122' 
NDBC,ioos:station:wmo:42056:1,2017-03-05T04:40:00Z,19.8020,-84.8570,5.0,9.0,70.0,11.0,'1111122,1111122,1111122' 
NDBC,ioos:station:wmo:42056:1,2017-03-05T05:40:00Z,19.8020,-84.8570,5.0,9.0,60.0,11.0,'1111122,1111122,1111122' 
NDBC,ioos:station:wmo:42056:1,2017-03-05T06:40:00Z,19.8020,-84.8570,5.0,11.0,60.0,13.0,'1111122,1111122,1111122' 
NDBC,ioos:station:wmo:42056:1,2017-03-05T07:50:00Z,19.8020,-84.8570,5.0,11.0,60.0,14.0,'1111122,1111122,1111122' 
NDBC,ioos:station:wmo:42056:1,2017-03-05T08:40:00Z,19.8020,-84.8570,5.0,11.0,50.0,13.0,'1111122,1111122,1111122' 
NDBC,ioos:station:wmo:42056:1,2017-03-05T09:40:00Z,19.8020,-84.8570,5.0,12.0,60.0,15.0,'1111122,1111122,1111122' 
NDBC,ioos:station:wmo:42056:1,2017-03-05T10:40:00Z,19.8020,-84.8570,5.0,11.0,60.0,14.0,'1111122,1111122,1111122' 
NDBC,ioos:station:wmo:42056:1,2017-03-05T11:40:00Z,19.8020,-84.8570,5.0,12.0,60.0,14.0,'1111122,1111122,1111122' 
NDBC,ioos:station:wmo:42056:1,2017-03-05T12:40:00Z,19.8020,-84.8570,5.0,12.0,60.0,15.0,'1111122,1111122,1111122' 
NDBC,ioos:station:wmo:42056:1,2017-03-05T13:40:00Z,19.8020,-84.8570,5.0,12.0,60.0,14.0,'1111122,1111122,1111122' 
NDBC,ioos:station:wmo:42056:1,2017-03-05T14:50:00Z,19.8020,-84.8570,5.0,10.0,70.0,13.0,'1111122,1111122,1111122' 
NDBC,ioos:station:wmo:42056:1,2017-03-05T15:40:00Z,19.8020,-84.8570,5.0,11.0,70.0,13.0,'1111122,1111122,1111122' 
NDBC,ioos:station:wmo:42056:1,2017-03-05T16:40:00Z,19.8020,-84.8570,5.0,10.0,80.0,13.0,'1111122,1111122,1111122' 
NDBC,ioos:station:wmo:42056:1,2017-03-05T17:50:00Z,19.8020,-84.8570,5.0,8.0,90.0,11.0,'1111122,1111122,1111122' 
NDBC,ioos:station:wmo:42056:1,2017-03-05T18:40:00Z,19.8020,-84.8570,5.0,10.0,80.0,12.0,'1111122,1111122,1111122' 
NDBC,ioos:station:wmo:42056:1,2017-03-05T19:40:00Z,19.8020,-84.8570,5.0,10.0,90.0,12.0,'1111122,1111122,1111122' 
NDBC,ioos:station:wmo:42056:1,2017-03-05T20:40:00Z,19.8020,-84.8570,5.0,10.0,80.0,13.0,'1111122,1111122,1111122' 
NDBC,ioos:station:wmo:42056:1,2017-03-05T21:40:00Z,19.8020,-84.8570,5.0,11.0,80.0,14.0,'1111122,1111122,1111122' 
NDBC,ioos:station:wmo:42056:1,2017-03-05T22:40:00Z,19.8020,-84.8570,5.0,10.0,80.0,12.0,'1111122,1111122,1111122' 
NDBC,ioos:station:wmo:42056:1,2017-03-05T23:40:00Z,19.8020,-84.8570,5.0,11.0,80.0,14.0,'1111122,1111122,1111122' 
NDBC,ioos:station:wmo:42056:1,2017-03-06T00:40:00Z,19.8020,-84.8570,5.0,12.0,80.0,16.0,'1111122,1111122,1111122' 
NDBC,ioos:station:wmo:42056:1,2017-03-06T01:40:00Z,19.8020,-84.8570,5.0,11.0,120.0,14.0,'1111122,1111122,1111122' 
NDBC,ioos:station:wmo:42056:1,2017-03-06T02:40:00Z,19.8020,-84.8570,5.0,12.0,90.0,15.0,'1111122,1111122,1111122' 
NDBC,ioos:station:wmo:42056:1,2017-03-06T03:40:00Z,19.8020,-84.8570,5.0,12.0,90.0,16.0,'1111122,1111122,1111122' 
NDBC,ioos:station:wmo:42056:1,2017-03-06T04:40:00Z,19.8020,-84.8570,5.0,11.0,80.0,14.0,'1111122,1111122,1111122' 
NDBC,ioos:station:wmo:42056:1,2017-03-06T05:40:00Z,19.8020,-84.8570,5.0,10.0,90.0,13.0,'1111122,1111122,1111122' 
NDBC,ioos:station:wmo:42056:1,2017-03-06T06:40:00Z,19.8020,-84.8570,5.0,10.0,70.0,13.0,'1111122,1111122,1111122' 
NDBC,ioos:station:wmo:42056:1,2017-03-06T07:40:00Z,19.8020,-84.8570,5.0,10.0,70.0,13.0,'1111122,1111122,1111122' 
NDBC,ioos:station:wmo:42056:1,2017-03-06T08:50:00Z,19.8020,-84.8570,5.0,12.0,80.0,16.0,'1111122,1111122,1111122' 
NDBC,ioos:station:wmo:42056:1,2017-03-06T09:40:00Z,19.8020,-84.8570,5.0,12.0,80.0,15.0,'1111122,1111122,1111122' 
NDBC,ioos:station:wmo:42056:1,2017-03-06T10:40:00Z,19.8020,-84.8570,5.0,13.0,80.0,21.0,'1111122,1111122,1111122' 
NDBC,ioos:station:wmo:42056:1,2017-03-06T11:50:00Z,19.8020,-84.8570,5.0,13.0,80.0,16.0,'1111122,1111122,1111122' 
NDBC,ioos:station:wmo:42056:1,2017-03-06T12:40:00Z,19.8020,-84.8570,5.0,12.0,80.0,16.0,'1111122,1111122,1111122' 
NDBC,ioos:station:wmo:42056:1,2017-03-06T13:30:00Z,19.8020,-84.8570,5.0,13.0,80.0,17.0,'1111122,1111122,1111122' 
NDBC,ioos:station:wmo:42056:1,2017-03-06T14:30:00Z,19.8020,-84.8570,5.0,13.0,80.0,17.0,'1111122,1111122,1111122' 
NDBC,ioos:station:wmo:42056:1,2017-03-06T15:40:00Z,19.8020,-84.8570,5.0,12.0,80.0,16.0,'1111122,1111122,1111122' 
NDBC,ioos:station:wmo:42056:1,2017-03-06T16:40:00Z,19.8020,-84.8570,5.0,12.0,80.0,15.0,'1111122,1111122,1111122' 
NDBC,ioos:station:wmo:42056:1,2017-03-06T17:40:00Z,19.8020,-84.8570,5.0,12.0,80.0,14.0,'1111122,1111122,1111122' 
NDBC,ioos:station:wmo:42056:1,2017-03-06T18:40:00Z,19.8020,-84.8570,5.0,12.0,80.0,14.0,'1111122,1111122,1111122' 
NDBC,ioos:station:wmo:42056:1,2017-03-06T19:40:00Z,19.8020,-84.8570,5.0,11.0,80.0,14.0,'1111122,1111122,1111122' 
NDBC,ioos:station:wmo:42056:1,2017-03-06T20:40:00Z,19.8020,-84.8570,5.0,11.0,90.0,14.0,'1111122,1111122,1111122' 
NDBC,ioos:station:wmo:42056:1,2017-03-06T21:40:00Z,19.8020,-84.8570,5.0,11.0,80.0,15.0,'1111122,1111122,1111122' 
NDBC,ioos:station:wmo:42056:1,2017-03-06T22:50:00Z,19.8020,-84.8570,5.0,11.0,90.0,14.0,'1111122,1111122,1111122' 
NDBC,ioos:station:wmo:42056:1,2017-03-06T23:40:00Z,19.8020,-84.8570,5.0,11.0,90.0,14.0,'1111122,1111122,1111122' 
NDBC,ioos:station:wmo:42056:1,2017-03-07T00:40:00Z,19.8020,-84.8570,5.0,11.0,90.0,14.0,'1111122,1111122,1111122' 
NDBC,ioos:station:wmo:42056:1,2017-03-07T01:20:00Z,19.8020,-84.8570,5.0,10.0,90.0,14.0,'1111122,1111122,1111122' 
NDBC,ioos:station:wmo:42056:1,2017-03-07T02:50:00Z,19.8020,-84.8570,5.0,11.0,90.0,13.0,'1111122,1111122,1111122' 
NDBC,ioos:station:wmo:42056:1,2017-03-07T03:40:00Z,19.8020,-84.8570,5.0,11.0,90.0,13.0,'1111122,1111122,1111122' 
NDBC,ioos:station:wmo:42056:1,2017-03-07T04:50:00Z,19.8020,-84.8570,5.0,11.0,90.0,14.0,'1111122,1111122,1111122' 
NDBC,ioos:station:wmo:42056:1,2017-03-07T05:40:00Z,19.8020,-84.8570,5.0,11.0,90.0,14.0,'1111122,1111122,1111122' 
NDBC,ioos:station:wmo:42056:1,2017-03-07T06:40:00Z,19.8020,-84.8570,5.0,11.0,80.0,13.0,'1111122,1111122,1111122' 
NDBC,ioos:station:wmo:42056:1,2017-03-07T07:50:00Z,19.8020,-84.8570,5.0,10.0,90.0,13.0,'1111122,1111122,1111122' 
NDBC,ioos:station:wmo:42056:1,2017-03-07T08:40:00Z,19.8020,-84.8570,5.0,10.0,90.0,12.0,'1111122,1111122,1111122' 
NDBC,ioos:station:wmo:42056:1,2017-03-07T09:40:00Z,19.8020,-84.8570,5.0,11.0,90.0,15.0,'1111122,1111122,1111122' 
NDBC,ioos:station:wmo:42056:1,2017-03-07T10:40:00Z,19.8020,-84.8570,5.0,11.0,80.0,13.0,'1111122,1111122,1111122' 
NDBC,ioos:station:wmo:42056:1,2017-03-07T11:40:00Z,19.8020,-84.8570,5.0,10.0,80.0,13.0,'1111122,1111122,1111122' 
NDBC,ioos:station:wmo:42056:1,2017-03-07T12:40:00Z,19.8020,-84.8570,5.0,11.0,80.0,13.0,'1111122,1111122,1111122' 
NDBC,ioos:station:wmo:42056:1,2017-03-07T13:10:00Z,19.8020,-84.8570,5.0,10.0,90.0,13.0,'1111122,1111122,1111122' 
NDBC,ioos:station:wmo:42056:1,2017-03-07T14:50:00Z,19.8020,-84.8570,5.0,11.0,90.0,13.0,'1111122,1111122,1111122' 
NDBC,ioos:station:wmo:42056:1,2017-03-07T15:50:00Z,19.8020,-84.8570,5.0,11.0,90.0,13.0,'1111122,1111122,1111122' 
NDBC,ioos:station:wmo:42056:1,2017-03-07T16:40:00Z,19.8020,-84.8570,5.0,10.0,90.0,13.0,'1111122,1111122,1111122' 
NDBC,ioos:station:wmo:42056:1,2017-03-07T17:40:00Z,19.8020,-84.8570,5.0,10.0,90.0,13.0,'1111122,1111122,1111122' 
NDBC,ioos:station:wmo:42056:1,2017-03-07T18:50:00Z,19.8020,-84.8570,5.0,10.0,90.0,13.0,'1111122,1111122,1111122' 
NDBC,ioos:station:wmo:42056:1,2017-03-07T19:40:00Z,19.8020,-84.8570,5.0,10.0,90.0,13.0,'1111122,1111122,1111122' 
NDBC,ioos:station:wmo:42056:1,2017-03-07T20:40:00Z,19.8020,-84.8570,5.0,10.0,90.0,13.0,'1111122,1111122,1111122' 
NDBC,ioos:station:wmo:42056:1,2017-03-07T21:40:00Z,19.8020,-84.8570,5.0,10.0,80.0,12.0,'1111122,1111122,1111122' 
NDBC,ioos:station:wmo:42056:1,2017-03-07T22:50:00Z,19.8020,-84.8570,5.0,10.0,80.0,13.0,'1111122,1111122,1111122' 
NDBC,ioos:station:wmo:42056:1,2017-03-08T00:40:00Z,19.8020,-84.8570,5.0,10.0,80.0,12.0,'1111122,1111122,1111122' 
NDBC,ioos:station:wmo:42056:1,2017-03-08T01:10:00Z,19.8020,-84.8570,5.0,9.0,90.0,12.0,'1111122,1111122,1111122' 
NDBC,ioos:station:wmo:42056:1,2017-03-08T02:40:00Z,19.8020,-84.8570,5.0,9.0,80.0,12.0,'1111122,1111122,1111122' 
NDBC,ioos:station:wmo:42056:1,2017-03-08T03:40:00Z,19.8020,-84.8570,5.0,9.0,80.0,12.0,'1111122,1111122,1111122' 
NDBC,ioos:station:wmo:42056:1,2017-03-08T04:40:00Z,19.8020,-84.8570,5.0,9.0,80.0,11.0,'1111122,1111122,1111122' 
NDBC,ioos:station:wmo:42056:1,2017-03-08T05:50:00Z,19.8020,-84.8570,5.0,8.0,90.0,10.0,'1111122,1111122,1111122' 
NDBC,ioos:station:wmo:42056:1,2017-03-08T06:40:00Z,19.8020,-84.8570,5.0,8.0,80.0,10.0,'1111122,1111122,1111122' 
NDBC,ioos:station:wmo:42056:1,2017-03-08T07:40:00Z,19.8020,-84.8570,5.0,7.0,90.0,9.0,'1111122,1111122,1111122' 
NDBC,ioos:station:wmo:42056:1,2017-03-08T08:40:00Z,19.8020,-84.8570,5.0,8.0,80.0,10.0,'1111122,1111122,1111122' 
NDBC,ioos:station:wmo:42056:1,2017-03-08T09:50:00Z,19.8020,-84.8570,5.0,8.0,80.0,10.0,'1111122,1111122,1111122' 
NDBC,ioos:station:wmo:42056:1,2017-03-08T10:50:00Z,19.8020,-84.8570,5.0,8.0,90.0,10.0,'1111122,1111122,1111122' 
NDBC,ioos:station:wmo:42056:1,2017-03-08T11:20:00Z,19.8020,-84.8570,5.0,8.0,80.0,11.0,'1111122,1111122,1111122' 
NDBC,ioos:station:wmo:42056:1,2017-03-08T12:40:00Z,19.8020,-84.8570,5.0,8.0,70.0,10.0,'1111122,1111122,1111122' 
NDBC,ioos:station:wmo:42056:1,2017-03-08T13:30:00Z,19.8020,-84.8570,5.0,8.0,70.0,10.0,'1111122,1111122,1111122' 
NDBC,ioos:station:wmo:42056:1,2017-03-08T14:50:00Z,19.8020,-84.8570,5.0,7.0,50.0,10.0,'1111122,1111122,1111122' 
NDBC,ioos:station:wmo:42056:1,2017-03-08T15:50:00Z,19.8020,-84.8570,5.0,8.0,60.0,10.0,'1111122,1111122,1111122' 
NDBC,ioos:station:wmo:42056:1,2017-03-08T16:40:00Z,19.8020,-84.8570,5.0,6.0,80.0,8.0,'1111122,1111122,1111122' 
NDBC,ioos:station:wmo:42056:1,2017-03-08T17:40:00Z,19.8020,-84.8570,5.0,8.0,100.0,10.0,'1111122,1111122,1111122' 
NDBC,ioos:station:wmo:42056:1,2017-03-08T18:40:00Z,19.8020,-84.8570,5.0,9.0,90.0,10.0,'1111122,1111122,1111122' 
NDBC,ioos:station:wmo:42056:1,2017-03-08T19:50:00Z,19.8020,-84.8570,5.0,7.0,90.0,10.0,'1111122,1111122,1111122' 
NDBC,ioos:station:wmo:42056:1,2017-03-08T20:40:00Z,19.8020,-84.8570,5.0,9.0,80.0,11.0,'1111122,1111122,1111122' 
NDBC,ioos:station:wmo:42056:1,2017-03-08T21:40:00Z,19.8020,-84.8570,5.0,9.0,80.0,10.0,'1111122,1111122,1111122' 
NDBC,ioos:station:wmo:42056:1,2017-03-08T22:40:00Z,19.8020,-84.8570,5.0,9.0,70.0,11.0,'1111122,1111122,1111122' 
NDBC,ioos:station:wmo:42056:1,2017-03-08T23:30:00Z,19.8020,-84.8570,5.0,9.0,70.0,11.0,'1111122,1111122,1111122' 
NDBC,ioos:station:wmo:42056:1,2017-03-09T00:50:00Z,19.8020,-84.8570,5.0,8.0,70.0,10.0,'1111122,1111122,1111122' 
NDBC,ioos:station:wmo:42056:1,2017-03-09T01:40:00Z,19.8020,-84.8570,5.0,8.0,80.0,10.0,'1111122,1111122,1111122' 
NDBC,ioos:station:wmo:42056:1,2017-03-09T02:40:00Z,19.8020,-84.8570,5.0,8.0,70.0,10.0,'1111122,1111122,1111122' 
NDBC,ioos:station:wmo:42056:1,2017-03-09T03:50:00Z,19.8020,-84.8570,5.0,8.0,70.0,10.0,'1111122,1111122,1111122' 
NDBC,ioos:station:wmo:42056:1,2017-03-09T04:50:00Z,19.8020,-84.8570,5.0,8.0,70.0,11.0,'1111122,1111122,1111122' 
NDBC,ioos:station:wmo:42056:1,2017-03-09T05:40:00Z,19.8020,-84.8570,5.0,7.0,60.0,9.0,'1111122,1111122,1111122' 
NDBC,ioos:station:wmo:42056:1,2017-03-09T06:50:00Z,19.8020,-84.8570,5.0,8.0,60.0,10.0,'1111122,1111122,1111122' 
NDBC,ioos:station:wmo:42056:1,2017-03-09T07:40:00Z,19.8020,-84.8570,5.0,9.0,70.0,11.0,'1111122,1111122,1111122' 
NDBC,ioos:station:wmo:42056:1,2017-03-09T08:40:00Z,19.8020,-84.8570,5.0,9.0,70.0,11.0,'1111122,1111122,1111122' 
NDBC,ioos:station:wmo:42056:1,2017-03-09T09:40:00Z,19.8020,-84.8570,5.0,9.0,80.0,11.0,'1111122,1111122,1111122' 
NDBC,ioos:station:wmo:42056:1,2017-03-09T10:40:00Z,19.8020,-84.8570,5.0,9.0,80.0,11.0,'1111122,1111122,1111122' 
NDBC,ioos:station:wmo:42056:1,2017-03-09T11:40:00Z,19.8020,-84.8570,5.0,9.0,60.0,11.0,'1111122,1111122,1111122' 
NDBC,ioos:station:wmo:42056:1,2017-03-09T12:40:00Z,19.8020,-84.8570,5.0,10.0,50.0,12.0,'1111122,1111122,1111122' 
NDBC,ioos:station:wmo:42056:1,2017-03-09T13:40:00Z,19.8020,-84.8570,5.0,9.0,50.0,11.0,'1111122,1111122,1111122' 
NDBC,ioos:station:wmo:42056:1,2017-03-09T14:50:00Z,19.8020,-84.8570,5.0,8.0,60.0,10.0,'1111122,1111122,1111122' 
NDBC,ioos:station:wmo:42056:1,2017-03-09T15:40:00Z,19.8020,-84.8570,5.0,9.0,70.0,11.0,'1111122,1111122,1111122' 
NDBC,ioos:station:wmo:42056:1,2017-03-09T16:40:00Z,19.8020,-84.8570,5.0,9.0,70.0,11.0,'1111122,1111122,1111122' 
NDBC,ioos:station:wmo:42056:1,2017-03-09T17:40:00Z,19.8020,-84.8570,5.0,8.0,70.0,10.0,'1111122,1111122,1111122' 
NDBC,ioos:station:wmo:42056:1,2017-03-09T18:50:00Z,19.8020,-84.8570,5.0,8.0,70.0,10.0,'1111122,1111122,1111122' 
NDBC,ioos:station:wmo:42056:1,2017-03-09T19:40:00Z,19.8020,-84.8570,5.0,9.0,70.0,11.0,'1111122,1111122,1111122' 
NDBC,ioos:station:wmo:42056:1,2017-03-09T20:40:00Z,19.8020,-84.8570,5.0,8.0,80.0,10.0,'1111122,1111122,1111122' 
NDBC,ioos:station:wmo:42056:1,2017-03-09T21:40:00Z,19.8020,-84.8570,5.0,8.0,70.0,10.0,'1111122,1111122,1111122' 